THOR ABLESTAR DEB, 1511

Orbit data source: Space-Track

THOR ABLESTAR DEB, 1511 is space debris in LEO originally from a launch on Fri, 13 Aug 1965 UTC launched from the Air Force Western Test Range (AFWTR). Debris objects in space refer to the collection of defunct objects orbiting the Earth. Examples of debris include non-operational satellites, rocket bodies, and fragments generated from explosions, collisions, or faulty payload assembly.

Loading next visibility...
Identifier
1511, 1965-065D
Orbit
LEO
Last TLE update
12 hours ago
Origin
Manufacturer
NRL
Mission
Spacecraft
Bus & Motor
Unknown
Mass
Unknown
Launch date (UTC)
1965-08-13 (60 years ago)
Launch vehicle
Unknown
Launch site
Air Force Western Test Range (AFWTR)
Object type
Payload
Rocket body
Debris
Shape & HBR
Unknown
Radar Cross Section
0.550 m², Medium (>0.1 m² and < 1m²)

Expand to show TLE details & history

TLE from 12 hours ago
0 THOR ABLESTAR DEB
1 01511U 65065D   25181.86190350  .00000026  00000-0  32899-4 0  9992
2 01511  89.9755 211.8001 0070633 114.0286  58.7232 13.34166102913835
Epoch: 2025-06-30T20:41Z
TLE epoch observation values (Epoch: 2025-06-30T20:41:08.462Z)
Latitude
6.47753°
Longitude
162.34645°
Altitude
1,106.148 km
Speed
7.313 km/s
True Right ascension
02h 07m 11s
True Declination
6° 26' 27"
Sunlit
Object was in daylight at epoch
Visualization orbit readout
Latitude
-10.38034°
Longitude
-17.65642°
Altitude
1,164.483 km
Speed
7.257 km/s
Apparent Right ascension
11h 51m 26s
Apparent Declination
-31° 43' 20"
Sunlit
Object is in daylight
Visualization observer readout
Local Sidereal Time
20:00:32
Azimuth
261.161° W
Elevation
-43.294°
Doppler factor
1
Orbital elements
Apogee altitude
1,181.182 km
Perigee altitude
1,075.144 km
Semi-major axis
7,506.3 km
Eccentricity
0.00706
Inclination
89.9755°
RAAN
211.8001°
Arg. of periapsis
114.0286°
True anomaly
Unknown
Mean anomaly
58.7232°
Eccentric anomaly
Unknown
Mean motion
3.33737 °/min
Orbital period
107.87 mins
BSTAR
0.000032899
Loading maneuver chart data...
Loading SW <> Apogee altitude chart data...
Loading historical data...
Loading historical data...
Loading historical data...
Loading historical data...
Loading historical data...
Loading historical data...
Loading historical data...

THOR ABLESTAR DEB Visibility forecast

Observer location: undefined°, undefined°

Span
Click to sort rows by Start time (UTC) header in descending order
Start Az.
Max El. time (UTC)
Max El. Az.
Max El.
End time (UTC)
End Az.
6 mins2025-07-01 12:39:25.817Z46.552° ENE2025-07-01 12:42:25.817Z73.986° E13.559°2025-07-01 12:45:25.817Z101.994° ESE
11 mins2025-07-01 14:26:25.817Z0.764° NNE2025-07-01 14:31:25.817Z218.937° SW44.769°2025-07-01 14:37:25.817Z186.178° SSW
4 mins2025-07-01 16:16:25.817Z304.825° NW2025-07-01 16:17:25.817Z295.511° NW12.329°2025-07-01 16:20:25.817Z268.236° W
7 mins2025-07-02 00:47:25.817Z101.071° ESE2025-07-02 00:50:25.817Z71.804° E16.721°2025-07-02 00:54:25.817Z34.301° NE
11 mins2025-07-02 02:32:25.817Z185.002° SSW2025-07-02 02:37:25.817Z269.157° W44.097°2025-07-02 02:43:25.817Z353.783° N
|